Location: *
(58.4167°N, 22.5000°E)
Time: 05:52:07
(UTC+00:00)

USA 245 - Pass Details

Date: 22 September 2019
Orbit: 266 x 999 km, 97.9° (Epoch: 04 October)

Event Time Altitude Azimuth Distance (km) Brightness Sun altitude
Exits shadow 18:36:37 25° 131° (SE) 1,738 5.2 -16.6°
Maximum altitude 18:39:51 53° 66° (ENE) 1,045 4.4 -17.0°
Drops below altitude 10° 18:44:53 10° 351° (N) 2,295 7.0 -17.5°
Sets 18:47:01 0° 346° (NNW) 3,115 7.9 -17.8°
